logo
Search for airport 
image banner adimage banner adimage banner ad
image banner ad

OMAM - Al Dhafra

Located in Abou Dabi, United Arab Emirates

ICAO - OMAM, IATA - DHF

Data provided by Airmate  

General information

Coordinates: N24°14'53" E54°32'51"
Elevation is 77 feet MSL.
Magnetic variation is 2° East
View others Airports in Abu Dhabi Emirate

Operational data

Special qualification required
Current time UTC:
Current local time:
METAR: OMAD 200600Z 18003KT CAVOK 27/20 Q1010 BECMG 31010KT
TAF: TAF OMAD 200500Z 2006/2112 25005KT 8000 NSC BECMG 2006/2008 33011KT BECMG 2017/2019 07005KT PROB30 2101/2104 4000 HZ BECMG 2108/2110 34011KT
View NOTAMs / SUP AIP / TFR affecting this airport [VIEW]
Communications frequencies: [VIEW]

Runways:

RWY identifierQFULength (ft)Width (ft)SurfaceLDA (ft)
13R127°12018147CONC
31L307°12018147CONC
31R307°12004147CONC
13L127°12004147CONC

Airport contact information

Address: Abou Dabi United Arab Emirates

Satellite view of OMAM